Stündliche Wetter Kysorychi

Heute, 8 Mai, Samstag

Zeit Temperatur Niederschläge Wind Luftdruck Luftfeuchtigkeit
00:00 +7°C° 0.2 mm 2 m/S 738 mmHg 95%
01:00 +7°C° 0.2 mm 3 m/S 738 mmHg 94%
02:00 +7°C° 0 mm 3 m/S 739 mmHg 95%
03:00 +5°C° 0.1 mm 3 m/S 739 mmHg 95%
04:00 +4°C° 0.1 mm 3 m/S 739 mmHg 94%
05:00 +4°C° 0.1 mm 4 m/S 739 mmHg 94%
06:00 +4°C° 0.1 mm 4 m/S 740 mmHg 92%
07:00 +4°C° 0.1 mm 4 m/S 740 mmHg 91%
08:00 +3°C° 0 mm 5 m/S 741 mmHg 89%
09:00 +4°C° 0.6 mm 4 m/S 742 mmHg 90%
10:00 +3°C° 0.6 mm 4 m/S 742 mmHg 92%
11:00 +3°C° 0.6 mm 4 m/S 743 mmHg 93%
12:00 +4°C° 0.2 mm 4 m/S 743 mmHg 91%
13:00 +4°C° 0.2 mm 4 m/S 744 mmHg 89%
14:00 +5°C° 0.2 mm 4 m/S 744 mmHg 87%
15:00 +5°C° 0.2 mm 4 m/S 744 mmHg 82%
16:00 +6°C° 0.2 mm 5 m/S 745 mmHg 76%
17:00 +7°C° 0.2 mm 5 m/S 745 mmHg 71%
18:00 +6°C° 0 mm 4 m/S 745 mmHg 76%
19:00 +4°C° 0 mm 3 m/S 746 mmHg 81%
20:00 +4°C° 0 mm 2 m/S 746 mmHg 86%
21:00 +3°C° 0 mm 2 m/S 747 mmHg 88%
22:00 +3°C° 0 mm 2 m/S 747 mmHg 91%
23:00 +2°C° 0 mm 2 m/S 747 mmHg 93%

Morgen, 9 Mai, Sonntag

Zeit Temperatur Niederschläge Wind Luftdruck Luftfeuchtigkeit
00:00 +2°C° 0 mm 2 m/S 748 mmHg 94%
01:00 +2°C° 0 mm 2 m/S 748 mmHg 94%
02:00 +1°C° 0 mm 2 m/S 748 mmHg 94%
03:00 +1°C° 0 mm 2 m/S 749 mmHg 94%
04:00 +1°C° 0 mm 2 m/S 749 mmHg 95%
05:00 +1°C° 0 mm 2 m/S 749 mmHg 95%
06:00 +3°C° 0 mm 2 m/S 750 mmHg 87%
07:00 +5°C° 0 mm 2 m/S 750 mmHg 80%
08:00 +7°C° 0 mm 3 m/S 751 mmHg 72%
09:00 +9°C° 0 mm 3 m/S 751 mmHg 64%
10:00 +10°C° 0 mm 3 m/S 751 mmHg 55%
11:00 +12°C° 0 mm 3 m/S 751 mmHg 46%
12:00 +14°C° 0 mm 2 m/S 751 mmHg 43%
13:00 +14°C° 0 mm 2 m/S 751 mmHg 39%
14:00 +15°C° 0 mm 2 m/S 751 mmHg 36%
15:00 +15°C° 0 mm 2 m/S 751 mmHg 37%
16:00 +15°C° 0 mm 2 m/S 751 mmHg 37%
17:00 +15°C° 0 mm 2 m/S 751 mmHg 38%
18:00 +13°C° 0 mm 2 m/S 751 mmHg 46%
19:00 +11°C° 0 mm 1 m/S 751 mmHg 53%
20:00 +9°C° 0 mm 1 m/S 751 mmHg 60%
21:00 +8°C° 0 mm 2 m/S 751 mmHg 62%
22:00 +7°C° 0 mm 2 m/S 752 mmHg 64%
23:00 +7°C° 0 mm 2 m/S 752 mmHg 66%

übermorgen, 10 Mai, Montag

Zeit Temperatur Niederschläge Wind Luftdruck Luftfeuchtigkeit
00:00 +6°C° 0 mm 2 m/S 752 mmHg 68%
01:00 +6°C° 0 mm 2 m/S 752 mmHg 70%
02:00 +5°C° 0 mm 2 m/S 752 mmHg 71%
03:00 +5°C° 0 mm 2 m/S 752 mmHg 73%
04:00 +5°C° 0 mm 2 m/S 752 mmHg 74%
05:00 +5°C° 0 mm 2 m/S 752 mmHg 76%
06:00 +7°C° 0 mm 3 m/S 752 mmHg 69%
07:00 +10°C° 0 mm 3 m/S 753 mmHg 62%
08:00 +12°C° 0 mm 4 m/S 753 mmHg 54%
09:00 +14°C° 0 mm 4 m/S 753 mmHg 50%
10:00 +15°C° 0 mm 4 m/S 753 mmHg 47%
11:00 +17°C° 0 mm 5 m/S 753 mmHg 43%
12:00 +17°C° 0 mm 5 m/S 752 mmHg 42%
13:00 +19°C° 0 mm 5 m/S 752 mmHg 41%
14:00 +19°C° 0 mm 5 m/S 752 mmHg 41%
15:00 +19°C° 0 mm 5 m/S 752 mmHg 43%
16:00 +19°C° 0 mm 4 m/S 751 mmHg 45%
17:00 +18°C° 0 mm 4 m/S 751 mmHg 47%
18:00 +15°C° 0 mm 4 m/S 751 mmHg 55%
19:00 +13°C° 0 mm 3 m/S 751 mmHg 63%
20:00 +11°C° 0 mm 3 m/S 752 mmHg 72%
21:00 +11°C° 0 mm 3 m/S 752 mmHg 73%
22:00 +10°C° 0 mm 3 m/S 752 mmHg 73%
23:00 +9°C° 0 mm 3 m/S 752 mmHg 74%

11 Mai, Dienstag

Zeit Temperatur Niederschläge Wind Luftdruck Luftfeuchtigkeit
00:00 +9°C° 0 mm 3 m/S 752 mmHg 76%
01:00 +8°C° 0 mm 3 m/S 752 mmHg 77%
02:00 +7°C° 0 mm 3 m/S 752 mmHg 78%
03:00 +7°C° 0 mm 3 m/S 752 mmHg 79%
04:00 +7°C° 0 mm 3 m/S 752 mmHg 80%
05:00 +5°C° 0 mm 3 m/S 752 mmHg 81%
06:00 +8°C° 0 mm 3 m/S 752 mmHg 72%
07:00 +10°C° 0 mm 4 m/S 751 mmHg 62%
08:00 +12°C° 0 mm 4 m/S 751 mmHg 53%
09:00 +14°C° 0 mm 4 m/S 751 mmHg 48%
10:00 +17°C° 0 mm 4 m/S 751 mmHg 43%
11:00 +18°C° 0 mm 4 m/S 751 mmHg 38%
12:00 +19°C° 0 mm 4 m/S 750 mmHg 36%
13:00 +20°C° 0 mm 4 m/S 750 mmHg 35%
14:00 +20°C° 0 mm 4 m/S 750 mmHg 34%
15:00 +20°C° 0 mm 4 m/S 749 mmHg 36%
16:00 +20°C° 0 mm 4 m/S 749 mmHg 39%
17:00 +19°C° 0 mm 4 m/S 748 mmHg 41%
18:00 +17°C° 0 mm 3 m/S 748 mmHg 51%
19:00 +14°C° 0 mm 3 m/S 748 mmHg 61%
20:00 +13°C° 0 mm 2 m/S 748 mmHg 70%
21:00 +12°C° 0 mm 2 m/S 748 mmHg 75%
22:00 +12°C° 0 mm 2 m/S 748 mmHg 80%
23:00 +10°C° 0 mm 3 m/S 747 mmHg 85%

12 Mai, Mittwoch

Zeit Temperatur Niederschläge Wind Luftdruck Luftfeuchtigkeit
00:00 +10°C° 0 mm 3 m/S 747 mmHg 89%
01:00 +10°C° 0 mm 3 m/S 747 mmHg 92%
02:00 +10°C° 0 mm 3 m/S 747 mmHg 96%
03:00 +9°C° 0 mm 3 m/S 747 mmHg 96%
04:00 +9°C° 0 mm 2 m/S 747 mmHg 97%
05:00 +8°C° 0 mm 2 m/S 746 mmHg 98%
06:00 +10°C° 0 mm 2 m/S 746 mmHg 88%
07:00 +11°C° 0 mm 3 m/S 746 mmHg 78%
08:00 +13°C° 0 mm 3 m/S 746 mmHg 68%
09:00 +12°C° 0 mm 3 m/S 746 mmHg 70%
10:00 +12°C° 0 mm 3 m/S 745 mmHg 72%
11:00 +11°C° 0 mm 3 m/S 745 mmHg 74%
12:00 +12°C° 0 mm 3 m/S 745 mmHg 71%
13:00 +12°C° 0 mm 4 m/S 744 mmHg 67%
14:00 +13°C° 0 mm 4 m/S 744 mmHg 64%
15:00 +13°C° 0.2 mm 4 m/S 744 mmHg 64%
16:00 +13°C° 0.2 mm 4 m/S 743 mmHg 65%
17:00 +14°C° 0.2 mm 4 m/S 743 mmHg 66%
18:00 +12°C° 0.2 mm 4 m/S 743 mmHg 73%
19:00 +11°C° 0.2 mm 4 m/S 743 mmHg 81%
20:00 +9°C° 0.2 mm 3 m/S 743 mmHg 88%
21:00 +8°C° 0 mm 3 m/S 743 mmHg 90%
22:00 +8°C° 0 mm 3 m/S 743 mmHg 93%
23:00 +7°C° 0 mm 3 m/S 742 mmHg 96%

13 Mai, Donnerstag

Zeit Temperatur Niederschläge Wind Luftdruck Luftfeuchtigkeit
00:00 +6°C° 0 mm 4 m/S 742 mmHg 94%
01:00 +6°C° 0 mm 4 m/S 742 mmHg 93%
02:00 +7°C° 0 mm 4 m/S 741 mmHg 91%
03:00 +8°C° 0 mm 3 m/S 741 mmHg 91%
04:00 +8°C° 0 mm 3 m/S 741 mmHg 91%
05:00 +8°C° 0 mm 3 m/S 741 mmHg 91%
06:00 +8°C° 0.1 mm 3 m/S 740 mmHg 89%
07:00 +9°C° 0.1 mm 3 m/S 740 mmHg 87%
08:00 +9°C° 0.1 mm 3 m/S 740 mmHg 85%
09:00 +10°C° 0.2 mm 4 m/S 740 mmHg 80%
10:00 +11°C° 0.2 mm 4 m/S 740 mmHg 76%
11:00 +10°C° 0.2 mm 5 m/S 740 mmHg 71%
12:00 +9°C° 0.9 mm 5 m/S 740 mmHg 78%
13:00 +8°C° 0.9 mm 5 m/S 739 mmHg 85%
14:00 +7°C° 0.9 mm 5 m/S 739 mmHg 93%
15:00 +8°C° 0.8 mm 5 m/S 739 mmHg 93%
16:00 +8°C° 0.8 mm 5 m/S 739 mmHg 93%
17:00 +8°C° 0.8 mm 5 m/S 739 mmHg 94%
18:00 +8°C° 0.2 mm 4 m/S 739 mmHg 94%
19:00 +8°C° 0.2 mm 4 m/S 739 mmHg 94%
20:00 +8°C° 0.2 mm 4 m/S 738 mmHg 94%
21:00 +9°C° 0.1 mm 3 m/S 738 mmHg 95%
22:00 +10°C° 0.1 mm 2 m/S 738 mmHg 96%
23:00 +10°C° 0.1 mm 2 m/S 738 mmHg 97%
Mehr zeigen

Wir brauchen deine Erlaubnis

Meteoprog und unser Service Anbieter werden persönliche Daten aufbewahren, so wie Cookies, Geräte Bezeichnung oder ähnliche Technologien von deinem Gerät und Prozess, so wie Persönliche Daten Inhalte und Werbungen, genauso wie social Media und den Verkehr zu analysieren.

  • Aufbewahrung und/oder Zugang zu deiner Geräte Informationen.

    Cookies, Geräte Bezeichnung oder andere Informationen, können aufbewahrt oder Zugang zu deinem Gerät erhalten, für den Grund, der oben angegeben wird.

  • Personalisierte Werbung und Inhalte, Messungen, Einblick in das Publikum und Produkt Entwicklung.

    Werbungen und Inhalte können personalisiert werden, basierend auf ein Profil. Mehr Daten können besser personalisierte Werbungen und Inhalte hinzufügen. Werbung und Inhalte können gezeigt und gemessen werden. Einblicke über das Publikum, welche die Werbung gesehen haben und den Inhalt, können abgeleitet werden. So wie Daten können genutzt werden, um es zu verbessern oder die Benutzer Erfahrung zu verbessern das System und die Software.

Wenn du “Ich stimme zu” klickst, erlaubst du uns, die Cookies zu benutzen die Geräte Bezeichnung, den Web oder ähnliche Technologien zu benutzen. Deine Settings, können in deinem Gerät bei deinem Browser geändert werden.

Für den bestimmten Zweck, berechtigten Interessen beruhen darauf, mehr als auf den Inhalt. Du kannst mehr darüber in unseren Privaten und Cookie Politik lesen.